Tracking 17694 objects as of 27-May-2016
HD Live streaming from Space Station
objects crossing your sky now

CZ-2D DEB

Track CZ-2D DEB now!
10-day predictions


NORAD ID: 35272
Int'l Code: 2005-024L
Perigee: 516.6 km
Apogee: 537.6 km
Inclination: 97.6 °
Period: 95.0 minutes
Semi major axis: 6898 km
RCS: 0.0215 m2 (small)
Launch date: July 5, 2005
Source: People's Republic of China (PRC)
Launch site: Jiuquan Satellite Launch Center, China (JSC)

Note: This is SATELLITE DEBRIS
Your satellite tracking list
Your tracking list is empty





NASA's NSSDC Master Catalog

Two Line Element Set (TLE):
1 35272U 05024L   16145.93309294 +.00000945 +00000-0 +53681-4 0  9991
2 35272 097.6077 182.4073 0015218 115.9217 004.8616 15.15323542579136
Source of the keplerian elements: AFSPC

N2YO: 525